This is the latest recevied weather packets stored in our database for station/object WA4IKQ. If no packets are shown the sender has not sent any weather packets the latest 10 day(s).
| Time | Temp. | Humidity | Pressure | Rain* | Wind** | Luminosity | Snow |
|---|---|---|---|---|---|---|---|
| 1778195539 | 32.78° C | 28% | 1012.5 hPa | 0 mm | 1.79 m/s, 200° | - | - |
| 1778195280 | 32.78° C | 30% | 1012.5 hPa | 0 mm | 0.89 m/s, 169° | - | - |
| 1778195180 | 32.78° C | 30% | 1012.5 hPa | 0 mm | 0.89 m/s, 169° | - | - |
| 1778194979 | 32.78° C | 30% | 1012.6 hPa | 0 mm | 2.24 m/s, 224° | - | - |
| 1778194932 | 32.78° C | 30% | 1012.6 hPa | 0 mm | 2.24 m/s, 224° | - | - |
| 1778194880 | 32.78° C | 30% | 1012.6 hPa | 0 mm | 2.24 m/s, 224° | - | - |
| 1778194714 | 32.78° C | 31% | 1012.5 hPa | 0 mm | 3.58 m/s, 203° | - | - |
| 1778194580 | 32.78° C | 31% | 1012.5 hPa | 0 mm | 3.58 m/s, 203° | - | - |
| 1778194486 | 32.78° C | 31% | 1012.4 hPa | 0 mm | 1.34 m/s, 195° | - | - |
| 1778194430 | 32.78° C | 31% | 1012.4 hPa | 0 mm | 1.34 m/s, 195° | - | - |
| 1778194281 | 32.78° C | 31% | 1012.4 hPa | 0 mm | 1.34 m/s, 195° | - | - |
| 1778194160 | 33.33° C | 32% | 1012.4 hPa | 0 mm | 1.34 m/s, 266° | - | - |
| 1778193981 | 33.33° C | 32% | 1012.4 hPa | 0 mm | 1.34 m/s, 266° | - | - |
| 1778193834 | 33.33° C | 32% | 1012.4 hPa | 0 mm | 1.34 m/s, 291° | - | - |
| 1778193796 | 33.33° C | 32% | 1012.4 hPa | 0 mm | 1.34 m/s, 291° | - | - |
| 1778193681 | 33.33° C | 32% | 1012.4 hPa | 0 mm | 1.34 m/s, 291° | - | - |
| 1778193473 | 33.89° C | 32% | 1012.4 hPa | 0 mm | 1.79 m/s, 269° | - | - |
| 1778193381 | 33.89° C | 32% | 1012.4 hPa | 0 mm | 1.79 m/s, 269° | - | - |
| 1778193134 | 33.89° C | 34% | 1012.4 hPa | 0 mm | 2.24 m/s, 248° | - | - |
| 1778193079 | 33.89° C | 34% | 1012.4 hPa | 0 mm | 2.24 m/s, 248° | - | - |
| 1778192875 | 33.89° C | 34% | 1012.3 hPa | 0 mm | 4.47 m/s, 191° | - | - |
| 1778192779 | 33.89° C | 34% | 1012.3 hPa | 0 mm | 4.47 m/s, 191° | - | - |
| 1778192512 | 34.44° C | 34% | 1012.1 hPa | 0 mm | 1.79 m/s, 195° | - | - |
| 1778192480 | 34.44° C | 34% | 1012.1 hPa | 0 mm | 1.79 m/s, 195° | - | - |
| 1778192353 | 34.44° C | 34% | 1012.2 hPa | 0 mm | 2.24 m/s, 229° | - | - |
* Rain latest hour (hover to see other rain measurements)
** Current wind speed in m/s (hover to see current wind gust speed)